Yakima, WA

12:17 AM PDT on June 21, 2018 (GMT -0700)
Yakima Air Term-McAllister

Weather History for KYKM - November, 2017

Change the Weather History Date:

Monday, November 20, 2017

  Actual Average Record
Temperature  
Mean Temperature 48 °F 36 °F  
Max Temperature 59 °F 46 °F 63 °F (2002)
Min Temperature 36 °F 26 °F 1 °F (1985)
Degree Days  
Heating Degree Days 17 29  
Month to date heating degree days 469 515  
Since 1 July heating degree days 1030 1219  
Cooling Degree Days 0 0  
Month to date cooling degree days 0 0  
Year to date cooling degree days 1054 472  
Moisture  
Dew Point 38 °F    
Average Humidity 68    
Maximum Humidity 92    
Minimum Humidity 43    
Precipitation  
Precipitation 0.08 in 0.04 in 0.41 in (1966)
Month to date precipitation 0.82 0.65  
Year to date precipitation 9.56 6.32  
Snow  
Snow 0.00 in 0.20 in 5.20 in (1946)
Month to date snowfall 0.4 1.5  
Year to date snowfall 29.5 10.2  
Since 1 July snowfall 0.4 1.6  
Snow Depth 0.00 in    
Sea Level Pressure  
Sea Level Pressure 29.76 in    
Wind  
Wind Speed 5 mph (West)    
Max Wind Speed 25 mph    
Max Gust Speed 31 mph    
Visibility 9 miles    
Events Rain    
T = Trace of Precipitation, MM = Missing Value Source: NWS Daily Summary

Daily Weather History Graph

Daily Weather History Graph

Search for Another Location

Airport or City:

Astronomy

Nov. 20, 2017 Rise Set
Actual Time 7:11 AM PST 4:23 PM PST
Civil Twilight 6:38 AM PST 4:56 PM PST
Nautical Twilight 6:01 AM PST 5:33 PM PST
Astronomical Twilight 5:25 AM PST 6:09 PM PST
Moon 8:59 AM PST (11/20) 6:22 PM PST (11/20)
Length of Visible Light 10h 18m
Length of Day
9h 11m
Waxing Crescent, 5% of the Moon is Illuminated
Nov 20
Waxing Crescent
Nov 26
First Quarter
Dec 3
Full
Dec 9
Last Quarter
Dec 17
New

Hourly Weather History & Observations

Time (PST) Temp. Windchill Dew Point Humidity Pressure Visibility Wind Dir Wind Speed Gust Speed Precip Events Conditions
12:53 AM 39.0 °F - 36.0 °F 89% 29.69 in 10.0 mi Calm Calm - 0.00 in Rain Light Rain
1:53 AM 39.9 °F - 36.0 °F 86% 29.69 in 10.0 mi Calm Calm - 0.00 in   Overcast
2:53 AM 39.0 °F 34.0 °F 36.0 °F 89% 29.68 in 10.0 mi WNW 6.9 mph - N/A   Overcast
3:53 AM 39.9 °F 35.1 °F 36.0 °F 86% 29.66 in 10.0 mi West 6.9 mph - 0.00 in   Overcast
4:53 AM 39.9 °F 37.8 °F 36.0 °F 86% 29.65 in 10.0 mi NW 3.5 mph - N/A   Mostly Cloudy
5:53 AM 39.9 °F - 37.0 °F 89% 29.64 in 10.0 mi Calm Calm - 0.01 in Rain Light Rain
6:53 AM 39.9 °F - 37.0 °F 89% 29.64 in 5.0 mi Calm Calm - 0.02 in Rain Light Rain
7:53 AM 41.0 °F - 37.9 °F 89% 29.62 in 7.0 mi Calm Calm - 0.00 in   Overcast
8:12 AM 41.0 °F - 37.9 °F 89% 29.59 in 6.0 mi Calm Calm - N/A   Overcast
8:19 AM 41.0 °F 39.0 °F 37.9 °F 89% 29.58 in 6.0 mi NNW 3.5 mph - 0.01 in Rain Light Rain
8:34 AM 41.0 °F - 39.0 °F 93% 29.58 in 7.0 mi Calm Calm - 0.01 in   Overcast
8:53 AM 42.1 °F 40.2 °F 39.9 °F 92% 29.60 in 10.0 mi West 3.5 mph - 0.01 in   Overcast
9:01 AM 43.0 °F 40.3 °F 39.9 °F 89% 29.59 in 8.0 mi WNW 4.6 mph - 0.00 in Rain Light Rain
9:53 AM 45.0 °F 40.6 °F 42.1 °F 90% 29.64 in 10.0 mi West 8.1 mph - 0.01 in   Overcast
10:35 AM 48.0 °F - 44.1 °F 86% 29.63 in 10.0 mi West 4.6 mph - 0.02 in Rain Light Rain
10:53 AM 48.9 °F - 44.1 °F 83% 29.63 in 10.0 mi Calm Calm - 0.03 in   Scattered Clouds
11:53 AM 54.0 °F - 46.9 °F 77% 29.68 in 10.0 mi Variable 3.5 mph - N/A   Scattered Clouds
12:04 PM 53.1 °F - 46.0 °F 77% 29.67 in 10.0 mi Calm Calm - N/A   Mostly Cloudy
12:29 PM 55.9 °F - 46.9 °F 72% 29.68 in 10.0 mi Calm Calm - N/A   Scattered Clouds
12:53 PM 55.9 °F - 46.0 °F 69% 29.70 in 10.0 mi Calm Calm - N/A   Scattered Clouds
1:53 PM 57.0 °F - 46.0 °F 67% 29.74 in 10.0 mi Calm Calm - N/A   Partly Cloudy
2:25 PM 57.9 °F - 36.0 °F 44% 29.75 in 10.0 mi West 18.4 mph 29.9 mph N/A   Clear
2:53 PM 57.0 °F - 35.1 °F 44% 29.78 in 10.0 mi West 19.6 mph 28.8 mph N/A   Clear
3:53 PM 53.1 °F - 34.0 °F 48% 29.83 in 10.0 mi West 13.8 mph - N/A   Clear
4:53 PM 51.1 °F - 32.0 °F 48% 29.86 in 10.0 mi WNW 10.4 mph - N/A   Clear
5:53 PM 48.9 °F - 33.1 °F 54% 29.91 in 10.0 mi West 11.5 mph - N/A   Clear
6:53 PM 46.9 °F - 33.1 °F 59% 29.96 in 10.0 mi WSW 6.9 mph - N/A   Clear
7:53 PM 45.0 °F 42.6 °F 35.1 °F 68% 30.01 in 10.0 mi Variable 4.6 mph - N/A   Clear
8:53 PM 42.1 °F 38.4 °F 34.0 °F 73% 30.05 in 10.0 mi SSW 5.8 mph - N/A   Clear
9:53 PM 37.9 °F 34.4 °F 32.0 °F 79% 30.09 in 10.0 mi West 4.6 mph - N/A   Clear
10:53 PM 37.0 °F 31.6 °F 32.0 °F 82% 30.10 in 10.0 mi NW 6.9 mph - N/A   Overcast
11:53 PM 36.0 °F 29.6 °F 32.0 °F 86% 30.11 in 10.0 mi West 8.1 mph - N/A   Overcast